| time (UTC) | temp F | wind direction | speed MPH | gust MPH | rain 1hr in | rain 24hr in | rain mn in | humidity % | barometer mb |
| 20260906072044 | 63 | 0 | 0.0 | 0.0 | 0.00 | 0.00 | 0.00 | 55 | 1026.1 |
| 20260906071555 | 64 | 0 | 0.0 | 3.0 | 0.00 | 0.00 | 0.00 | 56 | 1026.1 |
| 20260906071045 | 64 | 0 | 0.0 | 3.0 | 0.00 | 0.00 | 0.00 | 55 | 1026.3 |
| 20260906070545 | 64 | 0 | 0.0 | 3.0 | 0.00 | 0.00 | 0.00 | 55 | 1026.2 |
| 20260906070054 | 64 | 0 | 0.0 | 0.0 | 0.00 | 0.00 | 0.00 | 54 | 1026.2 |
| 20260906065545 | 64 | 0 | 0.0 | 4.0 | 0.00 | 0.00 | 0.00 | 54 | 1026.0 |
| 20260906065045 | 64 | 0 | 0.0 | 4.0 | 0.00 | 0.00 | 0.00 | 55 | 1026.0 |
| 20260906064559 | 64 | 0 | 0.0 | 4.0 | 0.00 | 0.00 | 0.00 | 55 | 1026.1 |
| 20260906064045 | 64 | 0 | 0.0 | 1.0 | 0.00 | 0.00 | 0.00 | 54 | 1026.2 |
| 20260906063545 | 64 | 0 | 0.0 | 0.0 | 0.00 | 0.00 | 0.00 | 54 | 1026.2 |
| 20260906063057 | 65 | 0 | 0.0 | 4.0 | 0.00 | 0.00 | 0.00 | 54 | 1026.2 |
| 20260906062547 | 65 | 0 | 0.0 | 4.0 | 0.00 | 0.00 | 0.00 | 53 | 1026.2 |
| 20260906062045 | 65 | 0 | 0.0 | 5.0 | 0.00 | 0.00 | 0.00 | 52 | 1026.3 |
| 20260906061556 | 66 | 0 | 0.0 | 5.0 | 0.00 | 0.00 | 0.00 | 52 | 1026.3 |
| 20260906061049 | 66 | 0 | 0.0 | 4.0 | 0.00 | 0.00 | 0.00 | 51 | 1026.3 |
| 20260906060545 | 66 | 0 | 0.0 | 1.0 | 0.00 | 0.00 | 0.00 | 51 | 1026.4 |
| 20260906060130 | 67 | 0 | 0.0 | 0.0 | 0.00 | 0.00 | 0.00 | 49 | 1026.4 |
| 20260906055548 | 67 | 0 | 0.0 | 0.0 | 0.00 | 0.00 | 0.00 | 48 | 1026.5 |
| 20260906055046 | 67 | 0 | 0.0 | 0.0 | 0.00 | 0.00 | 0.00 | 48 | 1026.6 |
| 20260906054559 | 67 | 0 | 0.0 | 0.0 | 0.00 | 0.00 | 0.00 | 48 | 1026.8 |
| 20260906054045 | 67 | 0 | 0.0 | 0.0 | 0.00 | 0.00 | 0.00 | 47 | 1026.8 |
| 20260906053545 | 68 | 0 | 0.0 | 0.0 | 0.00 | 0.00 | 0.00 | 47 | 1026.8 |
| 20260906053058 | 68 | 0 | 0.0 | 0.0 | 0.00 | 0.00 | 0.00 | 46 | 1027.0 |
| 20260906052548 | 68 | 0 | 0.0 | 0.0 | 0.00 | 0.00 | 0.00 | 46 | 1027.0 |
| 20260906052046 | 68 | 0 | 0.0 | 3.0 | 0.00 | 0.00 | 0.00 | 46 | 1027.1 |
| 20260906051558 | 68 | 0 | 0.0 | 4.0 | 0.00 | 0.00 | 0.00 | 46 | 1027.0 |
| 20260906051045 | 68 | 269 | 0.0 | 6.0 | 0.00 | 0.00 | 0.00 | 47 | 1026.9 |
| 20260906050544 | 68 | 233 | 1.0 | 10.0 | 0.00 | 0.00 | 0.00 | 47 | 1026.7 |
| 20260906050054 | 67 | 237 | 1.0 | 10.0 | 0.00 | 0.00 | 0.00 | 47 | 1026.6 |
| 20260906045545 | 67 | 260 | 1.0 | 10.0 | 0.00 | 0.00 | 0.00 | 48 | 1026.6 |
| 20260906045045 | 67 | 0 | 0.0 | 3.0 | 0.00 | 0.00 | 0.00 | 49 | 1026.5 |
| 20260906044559 | 67 | 282 | 0.0 | 4.0 | 0.00 | 0.00 | 0.00 | 49 | 1026.4 |
| 20260906044044 | 67 | 0 | 0.0 | 4.0 | 0.00 | 0.00 | 0.00 | 49 | 1026.4 |
| 20260906043547 | 67 | 0 | 0.0 | 4.0 | 0.00 | 0.00 | 0.00 | 48 | 1026.4 |
| 20260906043056 | 67 | 0 | 0.0 | 6.0 | 0.00 | 0.00 | 0.00 | 48 | 1026.4 |
| 20260906042545 | 67 | 322 | 0.0 | 9.0 | 0.00 | 0.00 | 0.00 | 47 | 1026.3 |
| 20260906042046 | 67 | 0 | 1.0 | 10.0 | 0.00 | 0.00 | 0.00 | 48 | 1026.3 |
| 20260906041554 | 67 | 280 | 1.0 | 10.0 | 0.00 | 0.00 | 0.00 | 48 | 1026.3 |
| 20260906041048 | 67 | 0 | 2.0 | 9.0 | 0.00 | 0.00 | 0.00 | 48 | 1026.3 |
| 20260906040545 | 67 | 236 | 0.0 | 10.0 | 0.00 | 0.00 | 0.00 | 47 | 1026.4 |
| 20260906040104 | 68 | 0 | 1.0 | 10.0 | 0.00 | 0.00 | 0.00 | 46 | 1026.3 |
| 20260906035543 | 68 | 294 | 2.0 | 13.0 | 0.00 | 0.00 | 0.00 | 46 | 1026.3 |
| 20260906035046 | 67 | 213 | 2.0 | 13.0 | 0.00 | 0.00 | 0.00 | 46 | 1026.5 |
| 20260906034559 | 67 | 302 | 2.0 | 13.0 | 0.00 | 0.00 | 0.00 | 47 | 1026.4 |
| 20260906034045 | 66 | 344 | 1.0 | 5.0 | 0.00 | 0.00 | 0.00 | 48 | 1026.3 |
| 20260906033548 | 66 | 0 | 0.0 | 5.0 | 0.00 | 0.00 | 0.00 | 48 | 1026.0 |
| 20260906033101 | 66 | 0 | 0.0 | 5.0 | 0.00 | 0.00 | 0.00 | 49 | 1025.9 |
| 20260906032544 | 66 | 0 | 0.0 | 5.0 | 0.00 | 0.00 | 0.00 | 50 | 1025.9 |
| 20260906032044 | 66 | 286 | 0.0 | 5.0 | 0.00 | 0.00 | 0.00 | 50 | 1025.9 |
| 20260906031603 | 66 | 0 | 0.0 | 5.0 | 0.00 | 0.00 | 0.00 | 51 | 1025.8 |
| 20260906031045 | 66 | 0 | 0.0 | 6.0 | 0.00 | 0.00 | 0.00 | 51 | 1025.8 |
| 20260906030546 | 65 | 235 | 0.0 | 12.0 | 0.00 | 0.00 | 0.00 | 52 | 1025.9 |
| 20260906030059 | 65 | 360 | 2.0 | 12.0 | 0.00 | 0.00 | 0.00 | 52 | 1025.8 |
| 20260906025624 | 65 | 0 | 1.0 | 11.0 | 0.00 | 0.00 | 0.00 | 52 | 1025.7 |
| 20260906025045 | 66 | 0 | 0.0 | 11.0 | 0.00 | 0.00 | 0.00 | 52 | 1025.6 |
| 20260906024608 | 66 | 258 | 1.0 | 11.0 | 0.00 | 0.00 | 0.00 | 52 | 1025.6 |
| 20260906024044 | 66 | 0 | 0.0 | 4.0 | 0.00 | 0.00 | 0.00 | 51 | 1025.5 |
| 20260906023545 | 66 | 263 | 0.0 | 2.0 | 0.00 | 0.00 | 0.00 | 50 | 1025.3 |
| 20260906023102 | 67 | 0 | 0.0 | 3.0 | 0.00 | 0.00 | 0.00 | 49 | 1025.3 |
| 20260906022545 | 67 | 0 | 0.0 | 6.0 | 0.00 | 0.00 | 0.00 | 48 | 1025.3 |
| 20260906022047 | 67 | 244 | 0.0 | 7.0 | 0.00 | 0.00 | 0.00 | 48 | 1025.4 |
| 20260906021607 | 68 | 244 | 1.0 | 7.0 | 0.00 | 0.00 | 0.00 | 48 | 1025.3 |
| 20260906021050 | 68 | 0 | 0.0 | 8.0 | 0.00 | 0.00 | 0.00 | 47 | 1025.2 |
| 20260906020544 | 69 | 0 | 0.0 | 8.0 | 0.00 | 0.00 | 0.00 | 45 | 1025.2 |
| 20260906020108 | 69 | 360 | 0.0 | 1.0 | 0.00 | 0.00 | 0.00 | 45 | 1025.3 |
| 20260906015545 | 70 | 0 | 0.0 | 4.0 | 0.00 | 0.00 | 0.00 | 43 | 1025.1 |
| 20260906015044 | 70 | 0 | 0.0 | 4.0 | 0.00 | 0.00 | 0.00 | 43 | 1024.9 |
| 20260906014611 | 70 | 0 | 0.0 | 4.0 | 0.00 | 0.00 | 0.00 | 47 | 1024.9 |
| 20260906014044 | 70 | 0 | 0.0 | 5.0 | 0.00 | 0.00 | 0.00 | 44 | 1025.2 |
| 20260906013544 | 70 | 0 | 0.0 | 12.0 | 0.00 | 0.00 | 0.00 | 44 | 1025.3 |
| 20260906013100 | 71 | 0 | 0.0 | 12.0 | 0.00 | 0.00 | 0.00 | 42 | 1025.4 |
| 20260906012544 | 71 | 0 | 3.0 | 12.0 | 0.00 | 0.00 | 0.00 | 42 | 1025.5 |
| 20260906012044 | 71 | 219 | 0.0 | 7.0 | 0.00 | 0.00 | 0.00 | 40 | 1025.4 |
| 20260906011613 | 71 | 0 | 0.0 | 6.0 | 0.00 | 0.00 | 0.00 | 39 | 1025.2 |
| 20260906011044 | 72 | 0 | 0.0 | 6.0 | 0.00 | 0.00 | 0.00 | 39 | 1025.2 |
| 20260906010544 | 72 | 0 | 0.0 | 1.0 | 0.00 | 0.00 | 0.00 | 38 | 1025.2 |
| 20260906010105 | 72 | 0 | 0.0 | 1.0 | 0.00 | 0.00 | 0.00 | 37 | 1025.3 |
| 20260906005544 | 73 | 0 | 0.0 | 2.0 | 0.00 | 0.00 | 0.00 | 36 | 1025.3 |
| 20260906005044 | 73 | 0 | 0.0 | 2.0 | 0.00 | 0.00 | 0.00 | 36 | 1025.4 |
| 20260906004605 | 73 | 0 | 0.0 | 3.0 | 0.00 | 0.00 | 0.00 | 35 | 1025.4 |
| 20260906004044 | 74 | 0 | 0.0 | 3.0 | 0.00 | 0.00 | 0.00 | 35 | 1025.3 |
| 20260906003545 | 74 | 0 | 0.0 | 3.0 | 0.00 | 0.00 | 0.00 | 34 | 1025.5 |
| 20260906003113 | 75 | 0 | 0.0 | 3.0 | 0.00 | 0.00 | 0.00 | 34 | 1025.4 |
| 20260906002544 | 75 | 0 | 0.0 | 8.0 | 0.00 | 0.00 | 0.00 | 34 | 1025.3 |
| 20260906002048 | 75 | 0 | 0.0 | 8.0 | 0.00 | 0.00 | 0.00 | 34 | 1025.2 |
| 20260906001602 | 75 | 0 | 0.0 | 3.0 | 0.00 | 0.00 | 0.00 | 34 | 1025.2 |
| 20260906001044 | 75 | 0 | 0.0 | 3.0 | 0.00 | 0.00 | 0.00 | 34 | 1025.2 |
| 20260906000544 | 75 | 0 | 0.0 | 6.0 | 0.00 | 0.00 | 0.00 | 34 | 1025.2 |
| 20260906000108 | 75 | 0 | 0.0 | 6.0 | 0.00 | 0.00 | 0.00 | 34 | 1025.3 |
| 20260905235545 | 76 | 0 | 0.0 | 6.0 | 0.00 | 0.00 | 0.00 | 34 | 1025.2 |
| 20260905235044 | 76 | 319 | 1.0 | 5.0 | 0.00 | 0.00 | 0.00 | 33 | 1025.2 |
| 20260905234553 | 76 | 0 | 0.0 | 8.0 | 0.00 | 0.00 | 0.00 | 32 | 1025.1 |
| 20260905234044 | 77 | 13 | 1.0 | 8.0 | 0.00 | 0.00 | 0.00 | 31 | 1025.1 |
| 20260905233545 | 77 | 19 | 1.0 | 5.0 | 0.00 | 0.00 | 0.00 | 31 | 1025.1 |
| 20260905233123 | 76 | 323 | 0.0 | 3.0 | 0.00 | 0.00 | 0.00 | 30 | 1025.2 |
| 20260905232545 | 77 | 0 | 0.0 | 2.0 | 0.00 | 0.00 | 0.00 | 30 | 1025.2 |
| 20260905232045 | 77 | 0 | 0.0 | 2.0 | 0.00 | 0.00 | 0.00 | 29 | 1025.2 |
| 20260905231558 | 77 | 0 | 0.0 | 5.0 | 0.00 | 0.00 | 0.00 | 29 | 1025.0 |
| 20260905231044 | 77 | 0 | 1.0 | 5.0 | 0.00 | 0.00 | 0.00 | 28 | 1025.0 |
| 20260905230544 | 78 | 55 | 0.0 | 3.0 | 0.00 | 0.00 | 0.00 | 28 | 1024.9 |
| 20260905230058 | 78 | 0 | 0.0 | 5.0 | 0.00 | 0.00 | 0.00 | 28 | 1024.9 |
| 20260905225544 | 78 | 0 | 0.0 | 7.0 | 0.00 | 0.00 | 0.00 | 28 | 1024.9 |
| 20260905225045 | 78 | 52 | 2.0 | 7.0 | 0.00 | 0.00 | 0.00 | 28 | 1024.8 |
| 20260905224615 | 78 | 0 | 0.0 | 5.0 | 0.00 | 0.00 | 0.00 | 28 | 1024.8 |
| 20260905224044 | 78 | 0 | 0.0 | 7.0 | 0.00 | 0.00 | 0.00 | 28 | 1024.8 |
| 20260905223545 | 78 | 49 | 3.0 | 7.0 | 0.00 | 0.00 | 0.00 | 27 | 1024.8 |
| 20260905223106 | 78 | 0 | 0.0 | 6.0 | 0.00 | 0.00 | 0.00 | 28 | 1024.8 |
| 20260905222545 | 78 | 0 | 1.0 | 5.0 | 0.00 | 0.00 | 0.00 | 28 | 1024.8 |
| 20260905222046 | 79 | 47 | 2.0 | 5.0 | 0.00 | 0.00 | 0.00 | 27 | 1024.8 |
| 20260905221607 | 79 | 0 | 0.0 | 5.0 | 0.00 | 0.00 | 0.00 | 27 | 1024.8 |
| 20260905221046 | 79 | 0 | 1.0 | 5.0 | 0.00 | 0.00 | 0.00 | 27 | 1024.8 |
| 20260905220545 | 80 | 15 | 0.0 | 6.0 | 0.00 | 0.00 | 0.00 | 26 | 1024.8 |
| 20260905220105 | 80 | 0 | 1.0 | 6.0 | 0.00 | 0.00 | 0.00 | 25 | 1024.9 |
| 20260905215547 | 80 | 0 | 0.0 | 1.0 | 0.00 | 0.00 | 0.00 | 26 | 1024.9 |
| 20260905215044 | 80 | 0 | 0.0 | 7.0 | 0.00 | 0.00 | 0.00 | 26 | 1025.0 |
| 20260905214557 | 80 | 0 | 1.0 | 7.0 | 0.00 | 0.00 | 0.00 | 26 | 1025.0 |
| 20260905214045 | 79 | 0 | 0.0 | 9.0 | 0.00 | 0.00 | 0.00 | 26 | 1025.2 |
| 20260905213546 | 80 | 0 | 0.0 | 9.0 | 0.00 | 0.00 | 0.00 | 26 | 1025.1 |
| 20260905213056 | 80 | 49 | 2.0 | 6.0 | 0.00 | 0.00 | 0.00 | 26 | 1025.2 |
| 20260905212545 | 79 | 38 | 1.0 | 11.0 | 0.00 | 0.00 | 0.00 | 26 | 1025.2 |
| 20260905212044 | 79 | 48 | 3.0 | 11.0 | 0.00 | 0.00 | 0.00 | 27 | 1025.3 |
| 20260905211551 | 79 | 43 | 2.0 | 11.0 | 0.00 | 0.00 | 0.00 | 27 | 1025.2 |
| 20260905211044 | 79 | 0 | 1.0 | 6.0 | 0.00 | 0.00 | 0.00 | 27 | 1025.3 |
| 20260905210543 | 78 | 57 | 1.0 | 6.0 | 0.00 | 0.00 | 0.00 | 28 | 1025.4 |
| 20260905210053 | 78 | 0 | 0.0 | 6.0 | 0.00 | 0.00 | 0.00 | 27 | 1025.3 |
| 20260905205544 | 78 | 46 | 0.0 | 6.0 | 0.00 | 0.00 | 0.00 | 27 | 1025.5 |
| 20260905205048 | 78 | 46 | 1.0 | 9.0 | 0.00 | 0.00 | 0.00 | 27 | 1025.5 |
| 20260905204556 | 78 | 0 | 2.0 | 9.0 | 0.00 | 0.00 | 0.00 | 27 | 1025.5 |
| 20260905204044 | 78 | 42 | 0.0 | 11.0 | 0.00 | 0.00 | 0.00 | 27 | 1025.7 |
| 20260905203548 | 78 | 66 | 3.0 | 12.0 | 0.00 | 0.00 | 0.00 | 27 | 1025.8 |
| 20260905203053 | 79 | 56 | 5.0 | 12.0 | 0.00 | 0.00 | 0.00 | 26 | 1025.9 |
| 20260905202544 | 79 | 0 | 2.0 | 12.0 | 0.00 | 0.00 | 0.00 | 26 | 1025.9 |
| 20260905202044 | 79 | 48 | 2.0 | 13.0 | 0.00 | 0.00 | 0.00 | 26 | 1025.9 |
| 20260905201606 | 79 | 0 | 4.0 | 13.0 | 0.00 | 0.00 | 0.00 | 26 | 1026.0 |
| 20260905201048 | 79 | 55 | 2.0 | 10.0 | 0.00 | 0.00 | 0.00 | 26 | 1025.9 |
| 20260905200544 | 79 | 38 | 2.0 | 12.0 | 0.00 | 0.00 | 0.00 | 26 | 1026.0 |
| 20260905195547 | 80 | 56 | 2.0 | 11.0 | 0.00 | 0.00 | 0.00 | 26 | 1025.9 |
| 20260905195044 | 80 | 34 | 3.0 | 15.0 | 0.00 | 0.00 | 0.00 | 27 | 1025.9 |
| 20260905194557 | 79 | 42 | 6.0 | 15.0 | 0.00 | 0.00 | 0.00 | 27 | 1026.0 |
| 20260905194048 | 79 | 47 | 4.0 | 15.0 | 0.00 | 0.00 | 0.00 | 27 | 1026.0 |
| 20260905193544 | 78 | 48 | 2.0 | 11.0 | 0.00 | 0.00 | 0.00 | 28 | 1026.0 |
| 20260905193051 | 78 | 0 | 3.0 | 13.0 | 0.00 | 0.00 | 0.00 | 28 | 1026.0 |
| 20260905192544 | 78 | 40 | 5.0 | 13.0 | 0.00 | 0.00 | 0.00 | 28 | 1026.1 |
| 20260905192046 | 78 | 50 | 2.0 | 14.0 | 0.00 | 0.00 | 0.00 | 28 | 1026.2 |
| 20260905191610 | 78 | 44 | 3.0 | 14.0 | 0.00 | 0.00 | 0.00 | 28 | 1026.2 |
| 20260905191046 | 78 | 55 | 3.0 | 13.0 | 0.00 | 0.00 | 0.00 | 28 | 1026.2 |
| 20260905190543 | 78 | 55 | 2.0 | 12.0 | 0.00 | 0.00 | 0.00 | 27 | 1026.2 |
| 20260905190132 | 79 | 67 | 4.0 | 12.0 | 0.00 | 0.00 | 0.00 | 27 | 1026.2 |
| 20260905185549 | 78 | 51 | 2.0 | 14.0 | 0.00 | 0.00 | 0.00 | 28 | 1026.2 |
| 20260905185044 | 78 | 0 | 3.0 | 14.0 | 0.00 | 0.00 | 0.00 | 29 | 1026.4 |
| 20260905184620 | 79 | 46 | 6.0 | 12.0 | 0.00 | 0.00 | 0.00 | 28 | 1026.3 |
| 20260905184043 | 80 | 41 | 2.0 | 10.0 | 0.00 | 0.00 | 0.00 | 27 | 1026.2 |
| 20260905183549 | 80 | 38 | 2.0 | 16.0 | 0.00 | 0.00 | 0.00 | 28 | 1026.1 |
| 20260905183057 | 79 | 44 | 3.0 | 16.0 | 0.00 | 0.00 | 0.00 | 27 | 1026.2 |
| 20260905182547 | 80 | 42 | 3.0 | 13.0 | 0.00 | 0.00 | 0.00 | 27 | 1026.2 |
| 20260905182046 | 80 | 28 | 6.0 | 13.0 | 0.00 | 0.00 | 0.00 | 27 | 1026.2 |
| 20260905181603 | 80 | 28 | 4.0 | 13.0 | 0.00 | 0.00 | 0.00 | 28 | 1026.3 |
| 20260905181044 | 80 | 55 | 6.0 | 13.0 | 0.00 | 0.00 | 0.00 | 29 | 1026.2 |
| 20260905180545 | 80 | 55 | 4.0 | 11.0 | 0.00 | 0.00 | 0.00 | 30 | 1026.3 |
| 20260905180100 | 79 | 40 | 3.0 | 11.0 | 0.00 | 0.00 | 0.00 | 29 | 1026.4 |
| 20260905175546 | 78 | 61 | 1.0 | 12.0 | 0.00 | 0.00 | 0.00 | 31 | 1026.3 |
| 20260905175048 | 79 | 51 | 1.0 | 13.0 | 0.00 | 0.00 | 0.00 | 29 | 1026.3 |
| 20260905174559 | 79 | 0 | 2.0 | 13.0 | 0.00 | 0.00 | 0.00 | 28 | 1026.3 |
| 20260905174044 | 80 | 52 | 1.0 | 8.0 | 0.00 | 0.00 | 0.00 | 26 | 1026.2 |
| 20260905173545 | 80 | 51 | 0.0 | 8.0 | 0.00 | 0.00 | 0.00 | 28 | 1026.2 |
| 20260905173057 | 80 | 0 | 0.0 | 8.0 | 0.00 | 0.00 | 0.00 | 27 | 1026.3 |
| 20260905172544 | 81 | 40 | 0.0 | 6.0 | 0.00 | 0.00 | 0.00 | 26 | 1026.3 |
| 20260905172046 | 81 | 200 | 0.0 | 4.0 | 0.00 | 0.00 | 0.00 | 26 | 1026.2 |
| 20260905171551 | 81 | 0 | 0.0 | 5.0 | 0.00 | 0.00 | 0.00 | 23 | 1026.3 |
| 20260905171044 | 80 | 0 | 0.0 | 5.0 | 0.00 | 0.00 | 0.00 | 24 | 1026.3 |
| 20260905170553 | 80 | 0 | 0.0 | 3.0 | 0.00 | 0.00 | 0.00 | 24 | 1026.2 |
| 20260905170113 | 80 | 0 | 0.0 | 3.0 | 0.00 | 0.00 | 0.00 | 23 | 1026.1 |
| 20260905165545 | 80 | 0 | 0.0 | 4.0 | 0.00 | 0.00 | 0.00 | 23 | 1025.9 |
| 20260905165046 | 80 | 0 | 0.0 | 10.0 | 0.00 | 0.00 | 0.00 | 24 | 1026.0 |
| 20260905164559 | 80 | 250 | 0.0 | 10.0 | 0.00 | 0.00 | 0.00 | 24 | 1026.1 |
| 20260905164045 | 80 | 263 | 0.0 | 6.0 | 0.00 | 0.00 | 0.00 | 25 | 1026.1 |
| 20260905163544 | 79 | 0 | 1.0 | 6.0 | 0.00 | 0.00 | 0.00 | 25 | 1026.0 |
| 20260905163052 | 79 | 0 | 0.0 | 8.0 | 0.00 | 0.00 | 0.00 | 25 | 1025.9 |
| 20260905162546 | 78 | 271 | 0.0 | 8.0 | 0.00 | 0.00 | 0.00 | 26 | 1026.0 |
| 20260905162045 | 78 | 0 | 0.0 | 5.0 | 0.00 | 0.00 | 0.00 | 26 | 1025.9 |
| 20260905161553 | 78 | 220 | 0.0 | 7.0 | 0.00 | 0.00 | 0.00 | 26 | 1025.9 |
| 20260905161045 | 78 | 219 | 1.0 | 9.0 | 0.00 | 0.00 | 0.00 | 27 | 1025.9 |
| 20260905160544 | 78 | 0 | 2.0 | 9.0 | 0.00 | 0.00 | 0.00 | 27 | 1025.9 |
| 20260905160100 | 78 | 264 | 1.0 | 10.0 | 0.00 | 0.00 | 0.00 | 27 | 1026.0 |
| 20260905155548 | 77 | 207 | 1.0 | 10.0 | 0.00 | 0.00 | 0.00 | 28 | 1026.1 |
| 20260905155046 | 77 | 213 | 2.0 | 9.0 | 0.00 | 0.00 | 0.00 | 28 | 1026.1 |
| 20260905154557 | 77 | 319 | 2.0 | 8.0 | 0.00 | 0.00 | 0.00 | 29 | 1026.0 |
| 20260905154046 | 76 | 306 | 2.0 | 8.0 | 0.00 | 0.00 | 0.00 | 29 | 1026.0 |
| 20260905153545 | 76 | 213 | 1.0 | 7.0 | 0.00 | 0.00 | 0.00 | 29 | 1026.0 |
| 20260905153056 | 76 | 0 | 1.0 | 7.0 | 0.00 | 0.00 | 0.00 | 30 | 1025.9 |
| 20260905152546 | 76 | 238 | 1.0 | 8.0 | 0.00 | 0.00 | 0.00 | 30 | 1026.0 |
| 20260905152045 | 75 | 0 | 2.0 | 9.0 | 0.00 | 0.00 | 0.00 | 30 | 1025.9 |
| 20260905151603 | 75 | 0 | 2.0 | 9.0 | 0.00 | 0.00 | 0.00 | 31 | 1025.9 |
| 20260905151043 | 75 | 291 | 1.0 | 8.0 | 0.00 | 0.00 | 0.00 | 31 | 1025.9 |
| 20260905150544 | 74 | 257 | 2.0 | 8.0 | 0.00 | 0.00 | 0.00 | 32 | 1025.9 |
| 20260905150058 | 74 | 0 | 1.0 | 10.0 | 0.00 | 0.00 | 0.00 | 32 | 1025.9 |
| 20260905145546 | 74 | 261 | 2.0 | 10.0 | 0.00 | 0.00 | 0.00 | 33 | 1026.0 |
| 20260905145046 | 73 | 263 | 1.0 | 9.0 | 0.00 | 0.00 | 0.00 | 34 | 1026.0 |
| 20260905144556 | 72 | 198 | 1.0 | 9.0 | 0.00 | 0.00 | 0.00 | 34 | 1026.1 |
| 20260905144047 | 72 | 277 | 2.0 | 9.0 | 0.00 | 0.00 | 0.00 | 34 | 1026.1 |
| 20260905143545 | 71 | 0 | 1.0 | 8.0 | 0.00 | 0.00 | 0.00 | 34 | 1026.1 |
| 20260905143103 | 71 | 263 | 2.0 | 8.0 | 0.00 | 0.00 | 0.00 | 35 | 1026.1 |
| 20260905142547 | 70 | 252 | 0.0 | 5.0 | 0.00 | 0.00 | 0.00 | 35 | 1026.0 |
| 20260905142126 | 70 | 0 | 0.0 | 8.0 | 0.00 | 0.00 | 0.00 | 35 | 1026.1 |
| 20260905141623 | 70 | 0 | 0.0 | 11.0 | 0.00 | 0.00 | 0.00 | 36 | 1026.1 |
| 20260905141049 | 69 | 251 | 1.0 | 11.0 | 0.00 | 0.00 | 0.00 | 36 | 1026.2 |
| 20260905140547 | 69 | 207 | 1.0 | 9.0 | 0.00 | 0.00 | 0.00 | 37 | 1026.0 |
| 20260905140058 | 68 | 0 | 0.0 | 3.0 | 0.00 | 0.00 | 0.00 | 37 | 1025.9 |
| 20260905135549 | 68 | 0 | 0.0 | 3.0 | 0.00 | 0.00 | 0.00 | 38 | 1025.9 |
| 20260905135050 | 67 | 0 | 0.0 | 3.0 | 0.00 | 0.00 | 0.00 | 38 | 1025.9 |
| 20260905134557 | 67 | 0 | 0.0 | 3.0 | 0.00 | 0.00 | 0.00 | 38 | 1025.7 |
| 20260905134046 | 66 | 0 | 0.0 | 3.0 | 0.00 | 0.00 | 0.00 | 39 | 1025.7 |
| 20260905133545 | 66 | 0 | 0.0 | 4.0 | 0.00 | 0.00 | 0.00 | 39 | 1025.8 |
| 20260905133059 | 66 | 0 | 0.0 | 4.0 | 0.00 | 0.00 | 0.00 | 39 | 1025.7 |
| 20260905132547 | 65 | 0 | 0.0 | 4.0 | 0.00 | 0.00 | 0.00 | 40 | 1025.7 |
| 20260905132045 | 65 | 0 | 0.0 | 4.0 | 0.00 | 0.00 | 0.00 | 40 | 1025.7 |
| 20260905131601 | 64 | 0 | 0.0 | 4.0 | 0.00 | 0.00 | 0.00 | 40 | 1025.7 |
| 20260905131048 | 64 | 0 | 0.0 | 4.0 | 0.00 | 0.00 | 0.00 | 40 | 1025.5 |
| 20260905130547 | 64 | 0 | 0.0 | 5.0 | 0.00 | 0.00 | 0.00 | 40 | 1025.6 |
| 20260905130101 | 64 | 0 | 0.0 | 5.0 | 0.00 | 0.00 | 0.00 | 40 | 1025.5 |
| 20260905125545 | 63 | 0 | 0.0 | 12.0 | 0.00 | 0.00 | 0.00 | 40 | 1025.5 |
| 20260905125046 | 63 | 0 | 1.0 | 12.0 | 0.00 | 0.00 | 0.00 | 41 | 1025.4 |
| 20260905124558 | 63 | 285 | 0.0 | 8.0 | 0.00 | 0.00 | 0.00 | 41 | 1025.4 |
| 20260905124044 | 63 | 0 | 0.0 | 5.0 | 0.00 | 0.00 | 0.00 | 41 | 1025.2 |
| 20260905123546 | 63 | 0 | 0.0 | 12.0 | 0.00 | 0.00 | 0.00 | 40 | 1025.2 |
| 20260905123111 | 63 | 0 | 1.0 | 12.0 | 0.00 | 0.00 | 0.00 | 40 | 1025.1 |
| 20260905122546 | 63 | 279 | 0.0 | 4.0 | 0.00 | 0.00 | 0.00 | 40 | 1024.9 |
| 20260905122047 | 63 | 0 | 0.0 | 4.0 | 0.00 | 0.00 | 0.00 | 40 | 1025.0 |
| 20260905121558 | 63 | 0 | 0.0 | 5.0 | 0.00 | 0.00 | 0.00 | 41 | 1024.9 |
| 20260905121044 | 63 | 0 | 0.0 | 5.0 | 0.00 | 0.00 | 0.00 | 41 | 1024.9 |
| 20260905120547 | 63 | 0 | 0.0 | 1.0 | 0.00 | 0.00 | 0.00 | 41 | 1025.0 |
| 20260905120057 | 63 | 0 | 0.0 | 2.0 | 0.00 | 0.00 | 0.00 | 40 | 1025.0 |
| 20260905115545 | 63 | 0 | 0.0 | 2.0 | 0.00 | 0.00 | 0.00 | 40 | 1025.1 |
| 20260905115046 | 64 | 0 | 0.0 | 3.0 | 0.00 | 0.00 | 0.00 | 40 | 1025.2 |
| 20260905114606 | 64 | 0 | 0.0 | 9.0 | 0.00 | 0.00 | 0.00 | 40 | 1025.1 |
| 20260905114044 | 64 | 0 | 1.0 | 9.0 | 0.00 | 0.00 | 0.00 | 40 | 1025.2 |
| 20260905113548 | 64 | 0 | 0.0 | 6.0 | 0.00 | 0.00 | 0.00 | 40 | 1025.1 |
| 20260905113110 | 64 | 258 | 1.0 | 8.0 | 0.00 | 0.00 | 0.00 | 40 | 1025.0 |
| 20260905112545 | 64 | 0 | 1.0 | 8.0 | 0.00 | 0.00 | 0.00 | 40 | 1025.0 |
| 20260905112050 | 64 | 0 | 1.0 | 4.0 | 0.00 | 0.00 | 0.00 | 40 | 1025.1 |
| 20260905111602 | 64 | 262 | 1.0 | 4.0 | 0.00 | 0.00 | 0.00 | 40 | 1025.1 |
| 20260905111047 | 64 | 0 | 0.0 | 6.0 | 0.00 | 0.00 | 0.00 | 41 | 1025.1 |
| 20260905110544 | 64 | 0 | 1.0 | 9.0 | 0.00 | 0.00 | 0.00 | 41 | 1025.0 |
| 20260905110055 | 64 | 0 | 2.0 | 9.0 | 0.00 | 0.00 | 0.00 | 41 | 1025.1 |
| 20260905105544 | 64 | 251 | 1.0 | 6.0 | 0.00 | 0.00 | 0.00 | 42 | 1025.0 |
| 20260905105048 | 64 | 0 | 1.0 | 6.0 | 0.00 | 0.00 | 0.00 | 42 | 1025.1 |
| 20260905104550 | 64 | 360 | 0.0 | 5.0 | 0.00 | 0.00 | 0.00 | 43 | 1025.0 |
| 20260905104049 | 64 | 0 | 0.0 | 4.0 | 0.00 | 0.00 | 0.00 | 43 | 1024.9 |
| 20260905103544 | 63 | 263 | 1.0 | 4.0 | 0.00 | 0.00 | 0.00 | 43 | 1024.8 |
| 20260905103102 | 63 | 0 | 0.0 | 4.0 | 0.00 | 0.00 | 0.00 | 43 | 1024.8 |
| 20260905102547 | 64 | 0 | 0.0 | 4.0 | 0.00 | 0.00 | 0.00 | 44 | 1024.8 |
| 20260905102044 | 64 | 0 | 0.0 | 6.0 | 0.00 | 0.00 | 0.00 | 44 | 1024.7 |
| 20260905101622 | 64 | 306 | 0.0 | 7.0 | 0.00 | 0.00 | 0.00 | 43 | 1024.7 |
| 20260905101050 | 64 | 0 | 1.0 | 7.0 | 0.00 | 0.00 | 0.00 | 43 | 1024.7 |
| 20260905100546 | 64 | 265 | 1.0 | 7.0 | 0.00 | 0.00 | 0.00 | 43 | 1024.6 |
| 20260905100059 | 64 | 0 | 0.0 | 8.0 | 0.00 | 0.00 | 0.00 | 43 | 1024.7 |
| 20260905095544 | 65 | 0 | 0.0 | 8.0 | 0.00 | 0.00 | 0.00 | 43 | 1024.6 |
| 20260905095045 | 64 | 0 | 0.0 | 6.0 | 0.00 | 0.00 | 0.00 | 43 | 1024.7 |
| 20260905094558 | 64 | 0 | 0.0 | 6.0 | 0.00 | 0.00 | 0.00 | 44 | 1024.7 |
| 20260905094047 | 64 | 0 | 0.0 | 3.0 | 0.00 | 0.00 | 0.00 | 44 | 1024.6 |
| 20260905093545 | 64 | 290 | 0.0 | 8.0 | 0.00 | 0.00 | 0.00 | 44 | 1024.6 |
| 20260905093050 | 64 | 0 | 0.0 | 8.0 | 0.00 | 0.00 | 0.00 | 44 | 1024.4 |
| 20260905092545 | 64 | 0 | 0.0 | 8.0 | 0.00 | 0.00 | 0.00 | 44 | 1024.5 |
| 20260905092044 | 64 | 0 | 0.0 | 7.0 | 0.00 | 0.00 | 0.00 | 44 | 1024.5 |
| 20260905091616 | 64 | 296 | 0.0 | 7.0 | 0.00 | 0.00 | 0.00 | 44 | 1024.5 |
| 20260905091048 | 64 | 294 | 0.0 | 8.0 | 0.00 | 0.00 | 0.00 | 44 | 1024.4 |
| 20260905090546 | 64 | 0 | 0.0 | 8.0 | 0.00 | 0.00 | 0.00 | 44 | 1024.4 |
| 20260905090056 | 64 | 0 | 0.0 | 8.0 | 0.00 | 0.00 | 0.00 | 45 | 1024.4 |
| 20260905085545 | 64 | 0 | 0.0 | 7.0 | 0.00 | 0.00 | 0.00 | 45 | 1024.4 |
| 20260905085045 | 64 | 279 | 0.0 | 3.0 | 0.00 | 0.00 | 0.00 | 45 | 1024.4 |
| 20260905084614 | 63 | 0 | 0.0 | 5.0 | 0.00 | 0.00 | 0.00 | 45 | 1024.4 |
| 20260905084045 | 63 | 0 | 0.0 | 5.0 | 0.00 | 0.00 | 0.00 | 45 | 1024.4 |
| 20260905083546 | 63 | 0 | 0.0 | 3.0 | 0.00 | 0.00 | 0.00 | 45 | 1024.4 |
| 20260905083050 | 63 | 0 | 0.0 | 5.0 | 0.00 | 0.00 | 0.00 | 45 | 1024.3 |
| 20260905082546 | 63 | 0 | 0.0 | 5.0 | 0.00 | 0.00 | 0.00 | 45 | 1024.3 |
| 20260905082046 | 63 | 0 | 0.0 | 5.0 | 0.00 | 0.00 | 0.00 | 45 | 1024.4 |
| 20260905081559 | 63 | 0 | 0.0 | 3.0 | 0.00 | 0.00 | 0.00 | 45 | 1024.4 |
| 20260905081044 | 63 | 301 | 0.0 | 4.0 | 0.00 | 0.00 | 0.00 | 46 | 1024.3 |
| 20260905080545 | 63 | 0 | 0.0 | 7.0 | 0.00 | 0.00 | 0.00 | 46 | 1024.4 |
| 20260905080056 | 63 | 310 | 0.0 | 7.0 | 0.00 | 0.00 | 0.00 | 46 | 1024.4 |
| 20260905075547 | 63 | 0 | 0.0 | 8.0 | 0.00 | 0.00 | 0.00 | 46 | 1024.5 |
| 20260905075046 | 63 | 0 | 0.0 | 8.0 | 0.00 | 0.00 | 0.00 | 45 | 1024.4 |
| 20260905074555 | 63 | 0 | 0.0 | 2.0 | 0.00 | 0.00 | 0.00 | 45 | 1024.4 |
| 20260905074046 | 63 | 0 | 0.0 | 2.0 | 0.00 | 0.00 | 0.00 | 45 | 1024.4 |
| 20260905073550 | 63 | 0 | 0.0 | 5.0 | 0.00 | 0.00 | 0.00 | 45 | 1024.5 |
| 20260905073100 | 63 | 0 | 0.0 | 6.0 | 0.00 | 0.00 | 0.00 | 45 | 1024.4 |
| 20260905072549 | 63 | 0 | 0.0 | 6.0 | 0.00 | 0.00 | 0.00 | 45 | 1024.4 |